Hourly Data Report for October 08, 2015

All times are specified in Local Standard Time (LST). Add 1 hour to adjust for Daylight Saving Time where and when it is observed.

EUREKA CLIMATE
NUNAVUT

79°59'21.000" N
85°56'02.000" W
10.00 m
2401199
71613
NEK

Download Data

Hourly Data (October 2015)
Hourly Data Report for October 8, 2015
Temp Definition
°C
Dew Point Temp Definition
°C
Rel Hum Definition
%
Wind Dir Definition
10's deg

Wind Spd Definition
km/h
Visibility Definition
km
Stn Press Definition
kPa
Hmdx Definition


Wind Chill Definition


Weather Definition


TIME
00:00 -17.5 -19.0 88 9 8   100.23   -23 LegendNANA
01:00 -17.9 -19.3 89 10 9   100.25   -24 LegendNANA
02:00 -16.6 -17.8 90 9 5   100.26   -20 LegendNANA
03:00 -16.7 -18.1 89 12 2   100.24   -18 LegendNANA
04:00 -16.3 -17.6 89 11 3   100.25   -19 LegendNANA
05:00 -15.1 -16.4 90 10 6   100.25   -19 LegendNANA
06:00 -14.7 -16.0 90 8 10   100.26   -21 LegendNANA
07:00 -13.9 -15.1 90 10 10   100.28   -20 LegendNANA
08:00 -13.1 -14.2 91 11 13   100.28   -20 LegendNANA
09:00 -11.8 -12.6 94 11 8   100.31   -17 LegendNANA
10:00 -9.9 -10.5 95 10 10   100.34   -15 LegendNANA
11:00 -9.7 -11.2 89 11 17   100.37   -17 LegendNANA
12:00 -11.8 -13.4 88 12 18   100.41   -20 LegendNANA
13:00 -12.4 -14.4 85 12 11   100.47   -18 LegendNANA
14:00 -13.2 -14.5 90 12 10   100.52   -19 LegendNANA
15:00 -12.5 -13.5 92 11 12   100.56   -19 LegendNANA
16:00 -10.3 -11.5 91 11 11   100.62   -16 LegendNANA
17:00 -8.3 -9.9 88 12 21   100.65   -16 LegendNANA
18:00 -8.3 -9.9 89 11 17   100.70   -15 LegendNANA
19:00 -7.9 -9.8 86 12 20   100.75   -15 LegendNANA
20:00 -8.0 -9.8 87 13 19   100.78   -15 LegendNANA
21:00 -8.2 -9.8 88 12 13   100.82   -14 LegendNANA
22:00 -8.0 -9.7 87 12 16   100.87   -15 LegendNANA
23:00 -7.8 -9.2 90 13 14   100.91   -14 LegendNANA

Notes on Data Quality.

Legend

  • E = Estimated
  • M = Missing
  • NA = Not Available
  • ‡ = Partner data that is not subject to review by the National Climate Archives
Date modified: